Location: McFarlands Corners
(41.4117°N, 81.3382°W)
Time: 12:19:59
(UTC+00:00)

Transit 4A - Pass Details

Date: 17 February 2026
Orbit: 863 x 978 km, 66.8° (Epoch: 17 March)

Event Time Altitude Azimuth Distance (km) Brightness Sun altitude
Rises 19:43:13 0° 315° (NW) 3,629 10.9 29.6°
Reaches altitude 10° 19:46:30 10° 298° (WNW) 2,696 10.5 29.3°
Maximum altitude 19:50:41 19° 256° (WSW) 2,136 10.8 28.8°
Drops below altitude 10° 19:54:54 10° 214° (SW) 2,714 12.1 28.3°
Sets 19:58:15 0° 197° (SSW) 3,661 12.0 27.9°
